Hyannis, MA

9:09 AM EDT on March 23, 2017 (GMT -0400)
Barnstable Municipal-Boardman-Polando Field

Weather History for KHYA - May, 2013

Change the Weather History Date:

Monday, May 13, 2013

  Actual Average Record
Temperature  
Mean Temperature 47 °F -  
Max Temperature 57 °F 62 °F 79 °F (1956)
Min Temperature 37 °F 46 °F 26 °F (1962)
Degree Days  
Heating Degree Days 18    
Moisture  
Dew Point 34 °F    
Average Humidity 53    
Maximum Humidity 89    
Minimum Humidity 37    
Precipitation  
Precipitation 0.00 in - - ()
Sea Level Pressure  
Sea Level Pressure 29.94 in    
Wind  
Wind Speed 8 mph (WSW)    
Max Wind Speed 25 mph    
Max Gust Speed 33 mph    
Visibility 10 miles    
Events      
Averages and records for this station are not official NWS values.
T = Trace of Precipitation, MM = Missing Value Source: NWS Daily Summary

Daily Weather History Graph

Daily Weather History Graph

Search for Another Location

Airport or City:

Trip Planner

Search our weather history database for the weather conditions in past years. The results will help you decide how hot, cold, wet, or windy it might be!

Date:

Astronomy

May. 13, 2013 Rise Set
Actual Time 5:23 AM EDT 7:52 PM EDT
Civil Twilight 4:51 AM EDT 8:23 PM EDT
Nautical Twilight 4:12 AM EDT 9:03 PM EDT
Astronomical Twilight 3:28 AM EDT 9:47 PM EDT
Moon 8:06 AM EDT (5/13) 10:59 PM EDT (5/13)
Length of Visible Light 15h 31m
Length of Day
14h 28m
Waxing Crescent, 12% of the Moon is Illuminated
May 13
Waxing Crescent
May 18
First Quarter
May 25
Full
May 31
Last Quarter
Jun 8
New

Hourly Weather History & Observations

Time (EDT) Temp. Dew Point Humidity Pressure Visibility Wind Dir Wind Speed Gust Speed Precip Events Conditions
12:56 AM 52.0 °F 33.1 °F 49% 29.83 in 10.0 mi NW 4.6 mph - N/A   Clear
1:56 AM 50.0 °F 32.0 °F 50% 29.86 in 10.0 mi WNW 4.6 mph - N/A   Clear
2:56 AM 48.0 °F 32.0 °F 54% 29.88 in 10.0 mi Calm Calm - N/A   Clear
3:56 AM 44.1 °F 34.0 °F 68% 29.88 in 10.0 mi Calm Calm - N/A   Clear
4:56 AM 39.0 °F 35.1 °F 86% 29.91 in 10.0 mi Calm Calm - N/A   Clear
5:56 AM 37.0 °F 34.0 °F 89% 29.93 in 10.0 mi Calm Calm - N/A   Clear
6:56 AM 48.9 °F 35.1 °F 59% 29.95 in 10.0 mi WNW 3.5 mph - N/A   Clear
7:56 AM 52.0 °F 34.0 °F 50% 29.96 in 10.0 mi WSW 8.1 mph - N/A   Clear
8:56 AM 55.0 °F 33.1 °F 43% 29.96 in 10.0 mi West 9.2 mph 17.3 mph N/A   Clear
9:56 AM 55.0 °F 36.0 °F 49% 29.97 in 10.0 mi SW 12.7 mph 20.7 mph N/A   Clear
10:56 AM 55.0 °F 35.1 °F 47% 29.97 in 10.0 mi SSW 18.4 mph 25.3 mph N/A   Clear
11:56 AM 55.9 °F 34.0 °F 44% 29.96 in 10.0 mi SW 20.7 mph 28.8 mph N/A   Clear
12:56 PM 55.9 °F 30.0 °F 37% 29.97 in 10.0 mi SW 25.3 mph 33.4 mph N/A   Clear
1:56 PM 57.0 °F 30.9 °F 37% 29.96 in 10.0 mi SW 20.7 mph 32.2 mph N/A   Clear
2:56 PM 57.0 °F 34.0 °F 42% 29.96 in 10.0 mi SW 23.0 mph - N/A   Clear
4:56 PM 55.0 °F 35.1 °F 47% 29.94 in 10.0 mi SW 19.6 mph - N/A   Clear
5:56 PM 54.0 °F 37.0 °F 53% 29.94 in 10.0 mi SSW 15.0 mph 23.0 mph N/A   Partly Cloudy
6:56 PM 53.1 °F 37.0 °F 55% 29.95 in 10.0 mi SW 13.8 mph 21.9 mph N/A   Mostly Cloudy
7:56 PM 52.0 °F 34.0 °F 50% 29.96 in 10.0 mi WSW 13.8 mph - N/A   Clear
8:56 PM 52.0 °F 35.1 °F 53% 29.96 in 10.0 mi West 9.2 mph - N/A   Overcast
9:56 PM 51.1 °F 37.0 °F 59% 29.98 in 10.0 mi NNW 3.5 mph - N/A   Overcast
10:56 PM 51.1 °F 30.0 °F 44% 29.97 in 10.0 mi NNW 10.4 mph - N/A   Scattered Clouds
11:56 PM 50.0 °F 30.9 °F 48% 29.98 in 10.0 mi NNW 10.4 mph 19.6 mph N/A   Overcast